Regional Weather Roundup
Issued by NWS Portland, ME

Current Version | Previous Version | Text Only | Print | Product List | Glossary Off
Versions: 1 2 3 4 5 6 7 8 9 10 11 12 13 14 15 16 17 18 19 20 21 22 23 24 25 26 27 28 29 30 31 32 33 34 35 36 37 38 39 40 41 42 43 44 45 46 47 48 49 50
000 ASUS41 KGYX 222210 RWRGYX WEATHER ROUNDUP FOR MAINE AND NEW HAMPSHIRE NATIONAL WEATHER SERVICE GRAY ME 500 PM EST MON JAN 22 2018 MEZ002-005-006-010-012-015-018-020-021-024-026-027-029-222300- MAINE CITY SKY/WX TMP DP RH WIND PRES REMARKS PORTLAND CLOUDY 23 21 92 NE14 30.38F WCI 11 SANFORD CLOUDY 24 22 91 NE13 30.34S FOG WCI 12 BAR HARBOR CLOUDY 21 7 54 NE6 30.44R WISCASSET CLOUDY 21 18 88 NE7 30.40F ROCKLAND FLURRIES 22 16 78 NE10 30.41S WCI 11 FRYEBURG CLOUDY 23 23 100 SE6 30.34F LEWISTONAUBURN MIX PCPN 21 18 88 NE7 30.38S AUGUSTA CLOUDY 20 15 81 NE7 30.39F WATERVILLE FLURRIES 19 13 77 NE7 30.36S BANGOR CLOUDY 20 8 60 CALM 30.42F GREENVILLE N/A 15 12 88 VRB3 30.28S MILLINOCKET CLOUDY 22 2 42 CALM 30.41R HOULTON FAIR 13 1 59 NE3 30.40R PRESQUE ISLE FAIR 13 0 56 NE3 30.42R FRENCHVILLE FAIR 9 -6 50 NW6 30.36R CARIBOU FAIR 12 -5 46 N3 30.40R $$ NHZ002-005-008-009-011-012-014-222300- NEW HAMPSHIRE CITY SKY/WX TMP DP RH WIND PRES REMARKS PORTSMOUTH LGT SNOW 29 27 93 NE13 30.31R FOG WCI 19 ROCHESTER CLOUDY 25 23 92 NE10 30.32S WCI 15 NASHUA LGT SNOW 30 30 100 VRB7 30.30S FOG MANCHESTER CLOUDY 29 27 92 NE9 30.29S CONCORD CLOUDY 28 23 81 E10 30.30F WCI 19 LACONIA CLOUDY 25 22 88 E10 30.31S WCI 15 PLYMOUTH CLOUDY 28 26 91 E5 30.30S FOG BERLIN MIX PCPN 30 23 75 CALM 30.23S WHITEFIELD CLOUDY 30 24 78 E6 30.20R JAFFREY CLOUDY 31 30 96 VRB3 30.23R FOG KEENE LGT RAIN 33 29 85 E5 30.24R LEBANON CLOUDY 32 26 78 SE7 30.23S MT WASHINGTON FOG 21 21 100 SW24 N/A VSB 0 WCI 4 $$ VTZ005-007-008-222300- VERMONT CITY SKY/WX TMP DP RH WIND PRES REMARKS ST JOHNSBURY N/A 32 30 92 MISG 30.20R MONTPELIER CLOUDY 30 28 92 S9 30.21R BURLINGTON FLURRIES 24 18 77 N5 30.17F $$ MAZ007-012-024-CTZ003-RIZ002-NYZ038-NYZ072-222300- SOUTHERN NEW ENGLAND AND NY CITY SKY/WX TMP DP RH WIND PRES REMARKS BOSTON CLOUDY 38 37 97 NE12 30.26F FOG WORCESTER FOG 32 31 96 NE10 30.21R VSB 1/4 NANTUCKET CLOUDY 40 40 100 E9 30.25R FOG PROVIDENCE CLOUDY 39 38 96 NE8 30.24R FOG HARTFORD CLOUDY 38 37 97 NE6 30.20S FOG ALBANY LGT RAIN 34 28 79 NE5 30.13F NEW YORK CITY CLOUDY 40 36 86 NE13 30.15R $$ ANZ081-ANZ082-ANZ150-NHZ014-MEZ023>029-222300- COASTAL MARINE OBSERVATIONS STATION/POSITION TIME TEMP WIND PRES WAVE AIR SEA DIR/SP/G HT/PER (UTC) (F) (DEG/KT/KT) (MB) (FT/S) MOUNT DESERT ROC 2200 27 40/ 14/ 17 1030.1R MATINICUS ROCK 2100 26 40/ 20/ 23 1028.5R ISLE OF SHOALS 2100 34 50/ 28/ 31 1024.8F JEFFREYS LEDGE 2136 43 N/A 8/ 7 GEORGES BANK BUO 2050 40 55 1027.2 4/ 8 $$ .............KEY.............. WCI - WIND CHILL TC - TEMPERATURE IN CELSIUS VSB - VISIBILITY IN MILES HX - HEAT INDEX FAIR- INDICATES FEW OR NO CLOUDS BELOW 12,000 FT, WITH NO SIGNIFICANT WEATHER AND/OR OBSTRUCTIONS TO VISIBILITY.

USA.gov is the U.S. government's official web portal to all federal, state and local government web resources and services.